Starlink 11592

operational
NORAD ID: 63560 Int'l Des: 2025-075 Owner: SPXS Country: US Constellation: starlink
LEOCIRCULAR

About Starlink 11592

Description loading...

Live Position

Loading 3D Globe...

Upcoming Passes

Altitude History

Altitude vs Time

uPlot chart will show altitude changes over time

Two-Line Element Set

1 63560U 25075N 25257.07808360 .00208146 00000-0 15775-2 0 9990
2 63560 43.0020 138.2258 0004487 268.4672 91.5682 15.70949883 25471
Epoch: Sep 14, 2025 • Age: 33 hours

Current Status

Altitude 354.9 km
Velocity 7.70 km/s
Sub-Earth Point -2.06°S, 157.22°E
Launch Date Apr 13, 2025
Age 0.4 years
Type internet

Technical Details

Classification Payload
Mass 960.00 kg
Dry Mass 910.00 kg
Total Mass 960.00 kg
Length 0.30 m
Diameter 4.10 m
Span 29.00 m
Shape Box + pan
Manufacturer SPXS
Bus Type Starlink V2MD
Phase Status In Orbit
Owner/State SPXS/US

Large Constellations

Loading constellations...